TimeEDT,TemperatureF,Dew PointF,Humidity,Sea Level PressureIn,VisibilityMPH,Wind Direction,Wind SpeedMPH,Gust SpeedMPH,PrecipitationIn,Events,Conditions,WindDirDegrees,DateUTC
12:15 AM,53.4,53.4,100,29.98,7.0,Calm,Calm,-,N/A,,Clear,0,2014-03-11 04:15:00
12:35 AM,53.2,53.2,100,29.98,4.0,Calm,Calm,-,N/A,,Clear,0,2014-03-11 04:35:00
12:55 AM,52.5,52.5,100,29.97,5.0,South,3.5,-,N/A,,Clear,190,2014-03-11 04:55:00
1:15 AM,54.1,54.1,100,29.97,10.0,Calm,Calm,-,N/A,,Clear,0,2014-03-11 05:15:00
1:35 AM,52.5,52.5,100,29.96,3.0,Calm,Calm,-,N/A,,Clear,0,2014-03-11 05:35:00
1:55 AM,53.4,53.4,100,29.96,5.0,Calm,Calm,-,N/A,,Clear,0,2014-03-11 05:55:00
2:15 AM,51.4,51.4,100,29.96,5.0,Calm,Calm,-,N/A,,Clear,0,2014-03-11 06:15:00
2:35 AM,51.3,51.3,100,29.95,5.0,Calm,Calm,-,N/A,,Clear,0,2014-03-11 06:35:00
2:55 AM,49.8,49.8,100,29.95,7.0,Calm,Calm,-,N/A,,Clear,0,2014-03-11 06:55:00
3:15 AM,50.4,50.4,100,29.94,7.0,Calm,Calm,-,N/A,,Clear,0,2014-03-11 07:15:00
3:35 AM,50.9,50.9,100,29.94,3.0,Calm,Calm,-,N/A,,Clear,0,2014-03-11 07:35:00
3:55 AM,50.9,50.9,100,29.93,1.0,Calm,Calm,-,N/A,,Mist,0,2014-03-11 07:55:00
4:15 AM,49.8,49.8,100,29.93,2.0,Calm,Calm,-,N/A,,Clear,0,2014-03-11 08:15:00
4:35 AM,50.4,50.4,100,29.92,7.0,Calm,Calm,-,N/A,,Clear,0,2014-03-11 08:35:00
4:55 AM,49.5,49.5,100,29.92,0.8,Calm,Calm,-,N/A,,Mist,0,2014-03-11 08:55:00
5:15 AM,48.7,48.7,100,29.92,0.5,Calm,Calm,-,N/A,Fog,Fog,0,2014-03-11 09:15:00
5:35 AM,48.7,48.7,100,29.93,1.2,Calm,Calm,-,N/A,,Mist,0,2014-03-11 09:35:00
5:55 AM,48.4,48.4,100,29.93,0.8,Calm,Calm,-,N/A,,Mist,0,2014-03-11 09:55:00
6:15 AM,48.9,48.9,100,29.94,0.8,Calm,Calm,-,N/A,,Mist,0,2014-03-11 10:15:00
6:35 AM,52.0,52.0,100,29.93,10.0,Calm,Calm,-,N/A,,Clear,0,2014-03-11 10:35:00
6:55 AM,51.3,50.9,99,29.93,10.0,Calm,Calm,-,N/A,,Clear,0,2014-03-11 10:55:00
7:15 AM,50.0,50.0,100,29.93,7.0,Calm,Calm,-,N/A,,Clear,0,2014-03-11 11:15:00
7:35 AM,50.0,50.0,100,29.93,7.0,Calm,Calm,-,N/A,,Clear,0,2014-03-11 11:35:00
7:55 AM,47.7,47.7,100,29.93,0.2,Calm,Calm,-,N/A,Fog,Fog,0,2014-03-11 11:55:00
8:15 AM,48.7,48.7,100,29.94,2.5,Calm,Calm,-,N/A,,Clear,0,2014-03-11 12:15:00
8:35 AM,51.4,51.4,100,29.94,4.0,Calm,Calm,-,N/A,,Clear,0,2014-03-11 12:35:00
8:55 AM,52.5,52.5,100,29.94,7.0,Calm,Calm,-,N/A,,Clear,0,2014-03-11 12:55:00
9:15 AM,57.6,56.7,97,29.94,7.0,Calm,Calm,-,N/A,,Clear,0,2014-03-11 13:15:00
9:35 AM,60.4,57.6,90,29.94,10.0,Calm,Calm,-,N/A,,Clear,0,2014-03-11 13:35:00
9:55 AM,63.5,58.6,84,29.95,10.0,Calm,Calm,-,N/A,,Clear,0,2014-03-11 13:55:00
10:15 AM,67.1,57.9,72,29.95,10.0,WSW,3.5,-,N/A,,Clear,240,2014-03-11 14:15:00
10:35 AM,68.7,58.1,69,29.95,10.0,SW,3.5,-,N/A,,Clear,230,2014-03-11 14:35:00
10:55 AM,70.5,57.2,63,29.94,10.0,Calm,Calm,-,N/A,,Clear,0,2014-03-11 14:55:00
11:15 AM,72.0,57.0,59,29.95,10.0,Calm,Calm,-,N/A,,Clear,0,2014-03-11 15:15:00
11:40 AM,75.0,56.5,52,29.94,10.0,WSW,4.6,-,N/A,,Clear,250,2014-03-11 15:40:00
11:55 AM,76.6,57.0,51,29.93,10.0,WSW,5.8,-,N/A,,Clear,250,2014-03-11 15:55:00
12:15 PM,77.4,56.8,49,29.93,10.0,West,4.6,-,N/A,,Clear,270,2014-03-11 16:15:00
12:35 PM,78.8,55.4,44,29.92,10.0,NW,5.8,-,N/A,,Clear,310,2014-03-11 16:35:00
12:55 PM,79.5,56.3,45,29.91,10.0,WNW,4.6,-,N/A,,Clear,300,2014-03-11 16:55:00
1:15 PM,79.5,56.3,45,29.91,10.0,NW,5.8,-,N/A,,Clear,310,2014-03-11 17:15:00
1:35 PM,80.2,56.5,44,29.90,10.0,WSW,3.5,-,N/A,,Clear,250,2014-03-11 17:35:00
1:55 PM,81.5,56.8,43,29.89,10.0,SW,6.9,-,N/A,,Clear,230,2014-03-11 17:55:00
2:15 PM,81.7,55.0,40,29.88,10.0,WSW,5.8,-,N/A,,Clear,240,2014-03-11 18:15:00
2:35 PM,81.5,55.2,40,29.87,10.0,WSW,8.1,-,N/A,,Clear,240,2014-03-11 18:35:00
2:55 PM,82.4,55.8,40,29.86,10.0,West,8.1,-,N/A,,Clear,270,2014-03-11 18:55:00
3:15 PM,82.9,55.8,39,29.85,10.0,West,5.8,-,N/A,,Scattered Clouds,260,2014-03-11 19:15:00
3:35 PM,82.0,55.6,40,29.84,10.0,SW,5.8,-,N/A,,Clear,220,2014-03-11 19:35:00
3:55 PM,83.1,55.6,39,29.83,10.0,WNW,6.9,-,N/A,,Clear,300,2014-03-11 19:55:00
4:15 PM,82.8,55.6,39,29.82,10.0,West,5.8,-,N/A,,Clear,280,2014-03-11 20:15:00
4:35 PM,83.5,53.6,36,29.82,10.0,South,9.2,-,N/A,,Clear,190,2014-03-11 20:35:00
4:55 PM,83.3,53.6,36,29.81,10.0,WSW,8.1,-,N/A,,Clear,250,2014-03-11 20:55:00
5:15 PM,82.8,52.9,36,29.81,10.0,SW,8.1,-,N/A,,Clear,230,2014-03-11 21:15:00
5:35 PM,82.4,54.3,38,29.81,10.0,West,6.9,-,N/A,,Clear,260,2014-03-11 21:35:00
5:55 PM,82.0,54.7,39,29.81,10.0,WSW,5.8,-,N/A,,Clear,250,2014-03-11 21:55:00
6:15 PM,81.3,54.7,40,29.80,10.0,WSW,4.6,-,N/A,,Clear,240,2014-03-11 22:15:00
6:35 PM,80.4,55.2,42,29.80,10.0,WSW,5.8,-,N/A,,Clear,240,2014-03-11 22:35:00
6:55 PM,79.5,56.1,44,29.80,10.0,WSW,3.5,-,N/A,,Clear,240,2014-03-11 22:55:00
7:15 PM,77.9,56.8,48,29.80,10.0,SW,3.5,-,N/A,,Clear,220,2014-03-11 23:15:00
7:35 PM,76.1,57.9,53,29.81,10.0,SSW,3.5,-,N/A,,Clear,210,2014-03-11 23:35:00
7:55 PM,75.0,58.1,56,29.82,10.0,SW,3.5,-,N/A,,Clear,220,2014-03-11 23:55:00
8:15 PM,74.3,58.1,57,29.82,10.0,SW,3.5,-,N/A,,Clear,220,2014-03-12 00:15:00
8:35 PM,72.5,58.3,61,29.82,10.0,South,3.5,-,N/A,,Clear,190,2014-03-12 00:35:00
8:55 PM,71.1,58.3,64,29.82,10.0,South,3.5,-,N/A,,Clear,190,2014-03-12 00:55:00
9:15 PM,71.1,58.1,63,29.82,10.0,SSW,3.5,-,N/A,,Clear,200,2014-03-12 01:15:00
9:35 PM,69.4,58.3,68,29.82,10.0,Calm,Calm,-,N/A,,Clear,0,2014-03-12 01:35:00
9:55 PM,69.3,58.1,68,29.82,10.0,South,3.5,-,N/A,,Clear,190,2014-03-12 01:55:00
10:15 PM,67.8,58.3,71,29.82,10.0,South,4.6,-,N/A,,Clear,190,2014-03-12 02:15:00
10:35 PM,68.4,58.1,70,29.82,10.0,SSW,3.5,-,N/A,,Scattered Clouds,200,2014-03-12 02:35:00
10:55 PM,67.6,58.1,71,29.82,10.0,SSW,4.6,-,N/A,,Clear,200,2014-03-12 02:55:00
11:15 PM,68.0,58.3,71,29.81,10.0,SSW,5.8,-,N/A,,Clear,210,2014-03-12 03:15:00
11:35 PM,70.7,57.7,63,29.81,10.0,SSW,5.8,-,N/A,,Scattered Clouds,210,2014-03-12 03:35:00
11:55 PM,70.0,58.1,66,29.81,10.0,SSW,4.6,-,N/A,,Mostly Cloudy,210,2014-03-12 03:55:00